This is the latest recevied weather packets stored in our database for station/object IT9RID. If no packets are shown the sender has not sent any weather packets the latest 10 day(s).
| Time | Temp. | Humidity | Pressure | Rain* | Wind** | Luminosity | Snow |
|---|---|---|---|---|---|---|---|
| 1777749201 | 13.33° C | 63% | 1022 hPa | 0 mm | - | - | - |
| 1777748601 | 13.89° C | 61% | 1021.8 hPa | 0 mm | - | - | - |
| 1777748001 | 14.44° C | 58% | 1021.6 hPa | 0 mm | - | - | - |
| 1777747401 | 15° C | 56% | 1021.5 hPa | 0 mm | - | - | - |
| 1777746801 | 15° C | 55% | 1021.4 hPa | 0 mm | - | - | - |
| 1777746200 | 15.56° C | 53% | 1021.3 hPa | 0 mm | - | - | - |
| 1777745600 | 15.56° C | 52% | 1021.2 hPa | 0 mm | - | - | - |
| 1777745000 | 16.11° C | 52% | 1021.2 hPa | 0 mm | - | - | - |
| 1777744400 | 16.11° C | 51% | 1021 hPa | 0 mm | - | - | - |
| 1777743800 | 16.11° C | 51% | 1020.9 hPa | 0 mm | - | - | - |
| 1777743201 | 16.67° C | 49% | 1020.7 hPa | 0 mm | - | - | - |
| 1777742599 | 17.22° C | 48% | 1020.7 hPa | 0 mm | - | - | - |
| 1777741999 | 17.22° C | 48% | 1020.7 hPa | 0 mm | - | - | - |
| 1777741399 | 17.22° C | 48% | 1020.6 hPa | 0 mm | - | - | - |
| 1777740799 | 17.78° C | 46% | 1020.7 hPa | 0 mm | - | - | - |
| 1777740199 | 17.22° C | 46% | 1020.7 hPa | 0 mm | - | - | - |
| 1777739598 | 17.22° C | 46% | 1020.7 hPa | 0 mm | - | - | - |
| 1777738999 | 17.78° C | 45% | 1020.6 hPa | 0 mm | - | - | - |
| 1777738398 | 17.78° C | 44% | 1020.6 hPa | 0 mm | - | - | - |
| 1777737198 | 18.33° C | 44% | 1020.5 hPa | 0 mm | - | - | - |
| 1777736598 | 17.78° C | 44% | 1020.4 hPa | 0 mm | - | - | - |
| 1777735998 | 18.89° C | 42% | 1020.5 hPa | 0 mm | - | - | - |
| 1777735398 | 18.33° C | 43% | 1020.5 hPa | 0 mm | - | - | - |
| 1777734797 | 18.33° C | 40% | 1020.6 hPa | 0 mm | - | - | - |
| 1777734197 | 17.78° C | 41% | 1020.5 hPa | 0 mm | - | - | - |
* Rain latest hour (hover to see other rain measurements)
** Current wind speed in m/s (hover to see current wind gust speed)